Regional Weather Roundup
Issued by NWS

Home | Current Version | Previous Version | Graphics & Text | Print | Product List | Glossary On
Versions: 1 2 3 4 5 6 7 8 9 10 11 12 13 14 15 16 17 18 19 20 21 22 23 24 25 26 27 28 29 30 31 32 33 34 35 36 37 38 39 40 41 42 43 44 45 46 47 48 49 50
000
ASUS45 KTFX 221304
RWRMT
MONTANA HOURLY WEATHER ROUNDUP
NATIONAL WEATHER SERVICE GREAT FALLS MT
704 AM MDT FRI AUG 22 2014

NOTE: "FAIR" INDICATES FEW OR NO CLOUDS BELOW 12000 FEET WITH NO
SIGNIFICANT WEATHER AND/OR OBSTRUCTIONS TO VISIBILITY.

* THESE STATIONS ARE NOT UNDER NWS QUALITY CONTROL. THEY DO NOT
   REPORT WEATHER SUCH AS PRECIPITATION OR FOG.

MTZ001>007-043-221400-
WEST OF THE DIVIDE
CITY           SKY/WX    TMP DP  RH WIND       PRES   REMARKS
KALISPELL      CLOUDY    57  45  64 NE9G20    30.05S
MISSOULA       LGT RAIN  54  52  93 SW12      30.07R
BUTTE          MOCLDY    48  45  89 CALM      30.12S
MULLAN PASS    CLOUDY    46  39  77 SE9G20    30.07S
* ESSEX        N/A       51  44  77 SE4        N/A
* LINCOLN      N/A       51  47  86 E4G9       N/A
* LOOKOUT PASS N/A       48  46  93 S1         N/A
* POLSON       N/A       52  46  80 NE1        N/A
* RONAN APT    MOCLDY    54  50  86 N/A        N/A
* SEELEY LAKE  N/A       48  47  96 E1         N/A
* THOMP F APT  CLOUDY    46  41  83 N3         N/A
* YAAK HILL    N/A       54  50  86 N2         N/A
$$

MTZ008-052>055-221400-
SOUTHWEST MONTANA
CITY           SKY/WX    TMP DP  RH WIND       PRES   REMARKS
BOZEMAN        LGT RAIN  52  48  86 SW6       30.10F
DILLON         CLOUDY    48  48 100 NE6       30.09F
W YELLOWSTONE  FOG       45  45 100 CALM      30.16S VSB M1/4
* THREE FORKS  CLOUDY    50  34  54 N/A        N/A
* BOULDER HILL N/A       45  41  86 N2         N/A
* MONIDA PASS  N/A       43  42  96 N/A        N/A
* RAYNOLDS PAS N/A       41  40  96 VRB2G9     N/A
* WHITEHALL    N/A       50  49  96 NE3        N/A
* WISE RIVER   N/A       45  43  93 SE2G7      N/A
$$

MTZ009>010-012-014-046-048-049-054-221400-
EAST SLOPES AND CENTRAL MONTANA
CITY           SKY/WX    TMP DP  RH WIND       PRES   REMARKS
CUT BANK       CLOUDY    52  48  86 N10       30.17S
GREAT FALLS    LGT RAIN  52  52 100 N9        30.13R VSB 1
HELENA         FOG       54  52  93 W6        30.10R
MALMSTROM AFB  LGT RAIN  52  52 100 N9        30.15R VSB 1 3/4
* CONRAD       CLOUDY    52  52 100 N/A        N/A
* DEARBORN     N/A       52  50  93 N9         N/A
* EAST GLACIER N/A       45  43  93 E9         N/A
* MONARCH      N/A       48  45  89 N4         N/A
* PENDROY      N/A       49  48  96 NE3        N/A
* ROGERS PASS  N/A       46  46 100 S3         N/A
* SAINT MARY   N/A       47  47 100 NE2        N/A
* SWEET GRASS  N/A       49  49 100 NE9        N/A
$$

MTZ011-013-016-021-035-040-045-047-050-051-221400-
NORTH CENTRAL MONTANA
CITY           SKY/WX    TMP DP  RH WIND       PRES   REMARKS
HAVRE          CLOUDY    57  54  90 E5        30.11F
LEWISTOWN      LGT RAIN  54  52  93 CALM      30.13S
* CHESTER      N/A       52  50  93 NE7G14     N/A
* DENTON       N/A       53  51  93 NW3        N/A
* GEYSER       N/A       51  50  96 NE5        N/A
* JUDITH GAP   N/A       51  51 100 VRB4       N/A
* LOMA         N/A       54  53  96 N5         N/A
$$

MTZ017>020-022>027-061-062-221400-
NORTHEAST MONTANA
CITY           SKY/WX    TMP DP  RH WIND       PRES   REMARKS
GLASGOW        LGT RAIN  59  57  93 NE12      30.09S VSB 2
GLENDIVE       CLOUDY    61  61 100 NE5       30.08S
JORDAN         CLOUDY    61  57  87 CALM      30.09R
SIDNEY         CLOUDY    61  59  93 NE10      30.09S
WOLF POINT     LGT RAIN  61  57  87 E8        30.10R
* BEAVER HILL  N/A       59  59 100 N/A        N/A
* CIRCLE       N/A       59  58  97 N3         N/A
* LINDSAY DVD  N/A       58  58 100 NE8        N/A
* SACO         N/A       59  57  93 N5         N/A
$$

MTZ028>042-056>058-221400-
SOUTHCENTRAL AND SOUTHEAST MONTANA
CITY           SKY/WX    TMP DP  RH WIND       PRES   REMARKS
BAKER          CLOUDY    61  59  93 SW3       30.09R
BILLINGS       LGT RAIN  55  54  96 N3        30.10S
LIVINGSTON     CLOUDY    54  50  86 SE7       30.11R
MILES CITY     CLOUDY    61  55  81 NW3       30.07S
* LAUREL APT   CLOUDY    55  52  90 N/A        N/A
* ROUNDUP APT  CLOUDY    55  52  90 N/A        N/A
* ALZADA       N/A       61  59  93 NW1        N/A
* HYSHAM       N/A       56  54  93 NE2        N/A
* LAME DEER    N/A       55  53  93 N/A        N/A
* REED POINT   N/A       55  54  96 N/A        N/A
* ROSCOE HILL  N/A       51  48  90 N2         N/A
$$

REGIONAL REPORTS...DAKOTAS
CITY           SKY/WX    TMP DP  RH WIND       PRES   REMARKS
WILLISTON      CLOUDY    61  55  81 N9        30.09S
DICKINSON      LGT RAIN  63  61  93 N3        30.05R VSB 3
BEACH          FOG       57  57 100 N5        30.08S VSB 3
CROSBY         CLOUDY    55  55 100 N5        30.13S
TIOGA          CLOUDY    57  57 100 NE9       30.13S
WATFORD CITY   CLOUDY    59  59 100 NE7       30.06S
BISMARCK       LGT RAIN  64  64 100 CALM      30.01S
GRAND FORKS    CLOUDY    68  66  93 N9        29.96S
FARGO          FOG       68  66  93 NW7       29.96R VSB M1/4
BUFFALO SD     PTCLDY    61  59  93 CALM      30.02R
RAPID CITY     CLOUDY    63  61  93 NW8       30.08R
$$

REGIONAL REPORTS...WYOMING/IDAHO/WASHINGTON
CITY           SKY/WX    TMP DP  RH WIND       PRES   REMARKS
GILLETTE       MOCLDY    57  54  90 CALM      30.14R
SHERIDAN       FOG       57  55  93 SW3       30.11R
CODY           CLOUDY    52  52 100 NE7       30.12F
YELLOWSTONE LA MOCLDY    43  43 100 NW3       30.23F
SALMON         CLOUDY    52  50  93 CALM      30.02R
MULLAN PASS    CLOUDY    46  39  77 SE9G20    30.07S
SAND POINT     PTCLDY    55  50  83 N15       29.99R
SPOKANE        PTCLDY    55  48  77 NE6       29.94S
$$

REGIONAL REPORTS...ALBERTA
CITY           SKY/WX    TMP DP  RH WIND       PRES   REMARKS
LETHBRIDGE     LGT RAIN  52  52 100 NE7       30.20R
$$

REGIONAL REPORTS...SASKATCHEWAN
CITY           SKY/WX    TMP DP  RH WIND       PRES   REMARKS
SWIFT CURRENT  LGT RAIN  52  52 100 N10       30.20R

$$



USA.gov is the U.S. government's official web portal to all federal, state and local government web resources and services.